COSMOS 1275 DEB

Satellite information

Favourite Embed

Satellite Type and Status

DEBRISIN ORBIT

Key statistics

Satellite COSMOS 1275 DEB at a glance.

Uptime

16218

Days in orbit

Revolutions

≈ 13.9

Per day

Orbit

LEO

Low Earth Orbit

Inclination

83.3

Latest

Satellite identification and parameters

Extended collection of information and parameters for COSMOS 1275 DEB.

Object identification

Identified? True

Debris? True

Object name: COSMOS 1275 DEB

International designator: 1981-053BU

Object number (NORAD): 12727

Object ID (CCSDS): 12727

Country: COMMONWEALTH OF INDEPENDENT STATES (CIS)

Current information (Y/N): Y

RCS size: MEDIUM

Orbital parameters

Period: 103.348 minutes

Inclination: 83.2898 deg

SMA: 7295.071 km

Apoapsis: 983.907 km

Periapsis: 849.965 km

RAAN: 184.046 deg

Eccentricy: 0.00918034

Argument of periapsis: 56.3732 deg

Mean anomaly: 116.795 deg

Mean motion: 13.93344401 rev/day

Mean motion (dot): 0.00001605 rev/day2

B* drag term: 0.0011740509 1/REarth

Two-line elements (TLE)

Creation date: Oct. 28, 2025, 7:11 p.m.

Reference frame: TEME

Reference center: EARTH

Epoch: Oct. 28, 2025, 10:19 a.m. UTC

TLE line 0: 0 COSMOS 1275 DEB

TLE line 1: 1 12727U 81053BU 25301.43029250 .00001605 00000-0 11741-2 0 9990

TLE line 2: 2 12727 83.2898 184.0460 0091803 56.3732 116.7950 13.93344401225997

Live tracking on map

Real-time ground track for satellite COSMOS 1275 DEB.

In-orbit conjunctions

A list of the most updated potential collisions computed for object COSMOS 1275 DEB.

Target Orbit TCA Probability of collision Miss distance Type
THOR ABLESTAR DEB LEO 2024-10-04 02:30:03 0.0001210489 212.0 (m) DEBRIS
FENGYUN 1C DEB SSO 2024-08-22 22:18:18 0.0001086158 182.0 (m) DEBRIS

Associated space launch

Navigation satellite providing location information for the Tsiklon-B navigation system

COSMOS 1275 DEB was lifted into orbit during the mission ‘Kosmos-3M | Parus 27’, on board a Kosmos-3M space rocket.

The launch took place on June 4, 1981, 3:41 p.m. from 132/2.

For more information about the launch, click the button.

Launch to space Kosmos-3M | Parus 27
Kosmos-3M | Parus 27

Agency: N/A

Status: Launch Successful

Launch date: June 4, 1981, 3:41 p.m. UTC

Rocket: Kosmos-3M

Launch pad: 132/2

Location: Plesetsk Cosmodrome, Russian Federation

...

Latest news about this satellite

There are no fresh news available about this satellite. Check back as we update our databases every day.


Newsletter sign-up

Weekly statistics, charts and insights to help you stay on top of the space industry.